Regional Weather Roundup
Issued by NWS Sioux Falls, SD

Home | Current Version | Previous Version | Graphics & Text | Print | Product List | Glossary On
Versions: 1 2 3 4 5 6 7 8 9 10 11 12 13 14 15 16 17 18 19 20 21 22 23 24 25 26 27 28 29 30 31 32 33 34 35 36 37 38 39 40 41 42 43 44 45 46 47 48 49 50
000
ASUS43 KFSD 222110
RWRFSD

WEATHER ROUNDUP FOR SE SOUTH DAKOTA/SW MINNESOTA/NW IOWA
NATIONAL WEATHER SERVICE SIOUX FALLS SD
400 PM CDT WED MAR 22 2017

NOTE: "FAIR" INDICATES FEW OR NO CLOUDS BELOW 12,000 FEET WITH NO
SIGNIFICANT WEATHER AND OR OBSTRUCTIONS TO VISIBILITY.


SDZ038>040-050-052>070-222200-
SOUTHEAST SOUTH DAKOTA

CITY           SKY/WX    TMP DP  RH WIND       PRES   REMARKS
BROOKINGS      CLOUDY    33  21  61 SE22G31   30.21F WCI  21
CHAMBERLAIN    CLOUDY    44  30  57 SE24G33   30.04F
HURON          CLOUDY    36  25  64 SE20G32   30.12F
MADISON        CLOUDY    32  25  74 SE22G30   30.20F WCI  19
MITCHELL       CLOUDY    38  25  59 SE22G32   30.16F
SIOUX FALLS    CLOUDY    37  23  56 SE21G26   30.24F
WINNER         FAIR      53  29  39 S28G40    29.98F
YANKTON        PTSUNNY   41  21  45 SE18G28   30.19F
$$

MNZ071-072-080-081-089-090-097-098-222200-
SOUTHWEST MINNESOTA

CITY           SKY/WX    TMP DP  RH WIND       PRES   REMARKS
FAIRMONT       CLOUDY    37  23  56 SE20G25   30.36F
JACKSON        FLURRIES  34  23  64 SE14G20   30.34F WCI  24
LUVERNE        CLOUDY    34  23  64 SE17      30.26F WCI  23
MARSHALL       MIX PCPN  32  27  81 S16G24    30.31F WCI  21
MONTEVIDEO     CLOUDY    36  23  60 S16G22    30.33F
PIPESTONE      CLOUDY    34  21  60 SE16      30.24F WCI  23
REDWOOD FALLS  CLOUDY    36  22  56 SE22      30.35F
TRACY          MIX PCPN  33  29  84 S16       30.32F WCI  22
WINDOM         FLURRIES  34  23  64 SE18      30.33F WCI  23
WORTHINGTON    CLOUDY    32  26  78 SE14      30.30F WCI  22
$$

IAZ001>003-012>014-020>022-031-032-NEZ013-014-SDZ071-222200-
NORTHWEST IOWA

CITY           SKY/WX    TMP DP  RH WIND       PRES   REMARKS
CHEROKEE       CLOUDY    39  25  56 SE16G22   30.31F
DENISON        CLOUDY    43  28  56 SE12G21   30.28F
ESTHERVILLE    CLOUDY    35  24  64 SE20      30.34F WCI  24
LE MARS        CLOUDY    39  25  56 SE14G23   30.28F
ORANGE CITY    CLOUDY    37  25  60 SE10G21   30.27F
SHELDON        CLOUDY    36  28  75 SE20G25   30.27F
SIOUX CITY     CLOUDY    42  26  53 SE21      30.27F
SPENCER        CLOUDY    37  24  59 SE16      30.33F
STORM LAKE     CLOUDY    39  23  52 SE18      30.30F
$$

ABBREVIATIONS USED IN REMARKS
   TC - TEMPERATURE IN CELSIUS
  WCI - WIND CHILL INDEX
   HX - HEAT INDEX
  VSB - VISIBILITY




USA.gov is the U.S. government's official web portal to all federal, state and local government web resources and services.